Tracking 33747 objects as of 11-Apr-2026
HD Live streaming from Space Station
objects crossing your sky now

STARLINK-36250

Track STARLINK-36250 now!
10-day predictions
STARLINK-36250 is classified as:


NORAD ID: 68513
Int'l Code: 2026-068F
Perigee: 334.9 km
Apogee: 335.6 km
Inclination: 53.2 °
Period: 91.1 minutes
Semi major axis: 6706 km
RCS: Unknown
Launch date: March 30, 2026
Source: United States (US)
Launch site: AIR FORCE EASTERN TEST RANGE (AFETR)
Your satellite tracking list
Your tracking list is empty




NASA's NSSDC Master Catalog

Two Line Element Set (TLE):
1 68513U 26068F   26101.16668980  .00125189  00000-0  63007-3 0  9994
2 68513  53.1598 346.5274 0000520 104.9417 299.7028 15.80824056  2985
Source of the keplerian elements: AFSPC